Starlink 34136

operational
NORAD ID: 64112 Int'l Des: 2025-110 Owner: SPXS Country: US Constellation: starlink
LEOCIRCULAR

Über Starlink 34136

Beschreibung wird geladen...

Live-Position

3D-Globus wird geladen...

Nächste Überflüge

Höhenverlauf

Altitude vs Time

uPlot chart will show altitude changes over time

Zweizeiliger Elementsatz

1 64112U 25110S 25308.33336806 .00079189 00000-0 19705-2 0 9991
2 64112 53.1603 249.2433 0001503 88.2892 29.8111 15.39599940 5716
Epoch: 4. Nov. 2025 • Age: 21 hours

Aktueller Status

Höhe 463.3 km
Geschwindigkeit 7.63 km/s
Subsatellitenpunkt -45.67°S, 75.31°E
Startdatum 23. Mai 2025
Alter 0.4 years
Typ internet

Technische Details

Klassifizierung Payload
Masse 575.00 kg
Trockenmasse 530.00 kg
Gesamtmasse 575.00 kg
Länge 0.30 m
Durchmesser 4.10 m
Spannweite 29.00 m
Form Box + pan
Hersteller SPXS
Bus-Typ Starlink V2MO
Phasenstatus In Orbit
Besitzer/Staat SPXS/US

Große Konstellationen

Loading constellations...